Location: Falniów
(50.3639°N, 19.9642°E)
Time: 12:55:59
(UTC+00:00)

Cosmos 2082 Rocket - Pass Details

Date: 24 April 2026
Orbit: 831 x 853 km, 71.0° (Epoch: 19 May)

Event Time Altitude Azimuth Distance (km) Brightness Sun altitude
Exits shadow 00:30:03 32° 262° (W) 1,429 3.1 -22.3°
Maximum altitude 00:32:05 44° 309° (NW) 1,172 2.9 -22.1°
Drops below altitude 10° 00:37:33 10° 21° (NNE) 2,494 5.8 -21.7°
Sets 00:40:09 0° 28° (NNE) 3,432 6.9 -21.4°
